| time (UTC) | temp F | wind direction | speed MPH | gust MPH | rain 1hr in | rain 24hr in | rain mn in | humidity % | barometer mb |
| 20260904081151 | 72 | 142 | 0.0 | 0.0 | 0.00 | 0.00 | 0.00 | 94 | 1009.3 |
| 20260904080646 | 73 | 142 | 0.0 | 0.0 | 0.00 | 0.00 | 0.00 | 94 | 1009.3 |
| 20260904080139 | 73 | 142 | 0.0 | 0.0 | 0.00 | 0.00 | 0.00 | 94 | 1009.3 |
| 20260904075906 | 73 | 143 | 0.0 | 0.0 | 0.00 | 0.00 | 0.00 | 94 | 1009.3 |
| 20260904075358 | 73 | 143 | 0.0 | 0.0 | 0.00 | 0.00 | 0.00 | 94 | 1009.3 |
| 20260904074622 | 73 | 142 | 0.0 | 0.0 | 0.00 | 0.00 | 0.00 | 94 | 1009.2 |
| 20260904074116 | 73 | 143 | 0.0 | 0.0 | 0.00 | 0.00 | 0.00 | 94 | 1009.2 |
| 20260904073610 | 73 | 142 | 0.0 | 0.0 | 0.00 | 0.00 | 0.00 | 94 | 1009.2 |
| 20260904073104 | 73 | 142 | 0.0 | 0.0 | 0.00 | 0.00 | 0.00 | 93 | 1009.2 |
| 20260904072558 | 73 | 143 | 0.0 | 0.0 | 0.00 | 0.00 | 0.00 | 93 | 1009.3 |
| 20260904072322 | 73 | 142 | 0.0 | 0.0 | 0.00 | 0.00 | 0.00 | 93 | 1009.3 |
| 20260904071817 | 74 | 143 | 0.0 | 0.0 | 0.00 | 0.00 | 0.00 | 92 | 1009.3 |
| 20260904071039 | 74 | 142 | 0.0 | 0.0 | 0.00 | 0.00 | 0.00 | 92 | 1009.3 |
| 20260904070534 | 74 | 143 | 0.0 | 0.0 | 0.00 | 0.00 | 0.00 | 92 | 1009.3 |
| 20260904070028 | 74 | 143 | 0.0 | 0.0 | 0.00 | 0.00 | 0.00 | 92 | 1009.5 |
| 20260904065522 | 74 | 142 | 0.0 | 1.0 | 0.00 | 0.00 | 0.00 | 92 | 1009.5 |
| 20260904065016 | 74 | 142 | 0.0 | 1.0 | 0.00 | 0.00 | 0.00 | 92 | 1009.5 |
| 20260904064510 | 74 | 142 | 0.0 | 0.0 | 0.00 | 0.00 | 0.00 | 92 | 1009.5 |
| 20260904064004 | 74 | 142 | 0.0 | 0.0 | 0.00 | 0.00 | 0.00 | 92 | 1009.5 |
| 20260904063458 | 74 | 142 | 0.0 | 0.0 | 0.00 | 0.00 | 0.00 | 92 | 1009.5 |
| 20260904062951 | 74 | 142 | 0.0 | 0.0 | 0.00 | 0.00 | 0.00 | 91 | 1009.5 |
| 20260904062446 | 74 | 142 | 0.0 | 1.0 | 0.00 | 0.00 | 0.00 | 91 | 1009.5 |
| 20260904061944 | 74 | 167 | 0.0 | 0.0 | 0.00 | 0.00 | 0.00 | 91 | 1009.5 |
| 20260904061940 | 74 | 142 | 0.0 | 1.0 | 0.00 | 0.00 | 0.00 | 91 | 1009.5 |
| 20260904061432 | 75 | 167 | 0.0 | 1.0 | 0.00 | 0.00 | 0.00 | 91 | 1009.5 |
| 20260904060422 | 75 | 169 | 0.0 | 1.0 | 0.00 | 0.00 | 0.00 | 91 | 1009.6 |
| 20260904055916 | 75 | 89 | 0.0 | 1.0 | 0.00 | 0.00 | 0.00 | 90 | 1009.6 |
| 20260904055643 | 75 | 86 | 0.0 | 1.0 | 0.00 | 0.00 | 0.00 | 90 | 1009.5 |
| 20260904055137 | 75 | 86 | 0.0 | 0.0 | 0.00 | 0.00 | 0.00 | 90 | 1009.6 |
| 20260904054358 | 75 | 100 | 0.0 | 0.0 | 0.00 | 0.00 | 0.00 | 90 | 1009.5 |
| 20260904053851 | 75 | 98 | 0.0 | 1.0 | 0.00 | 0.00 | 0.00 | 89 | 1009.5 |
| 20260904053346 | 75 | 98 | 0.0 | 1.0 | 0.00 | 0.00 | 0.00 | 89 | 1009.5 |
| 20260904053113 | 76 | 136 | 0.0 | 0.0 | 0.00 | 0.00 | 0.00 | 89 | 1009.6 |
| 20260904052334 | 76 | 143 | 0.0 | 0.0 | 0.00 | 0.00 | 0.00 | 89 | 1009.5 |
| 20260904051828 | 76 | 144 | 0.0 | 1.0 | 0.00 | 0.00 | 0.00 | 88 | 1009.3 |
| 20260904051322 | 76 | 143 | 0.0 | 1.0 | 0.00 | 0.00 | 0.00 | 88 | 1009.2 |
| 20260904050816 | 76 | 152 | 0.0 | 1.0 | 0.00 | 0.00 | 0.00 | 88 | 1009.2 |
| 20260904050540 | 76 | 83 | 0.0 | 1.0 | 0.00 | 0.00 | 0.00 | 87 | 1009.3 |
| 20260904045803 | 76 | 84 | 0.0 | 1.0 | 0.00 | 0.00 | 0.00 | 87 | 1009.5 |
| 20260904045257 | 77 | 94 | 0.0 | 1.0 | 0.00 | 0.00 | 0.00 | 87 | 1009.3 |
| 20260904044750 | 77 | 114 | 0.0 | 1.0 | 0.00 | 0.00 | 0.00 | 87 | 1009.3 |
| 20260904044245 | 77 | 59 | 0.0 | 2.0 | 0.00 | 0.00 | 0.00 | 86 | 1009.2 |
| 20260904043739 | 77 | 85 | 0.0 | 2.0 | 0.00 | 0.00 | 0.00 | 86 | 1009.2 |
| 20260904043504 | 77 | 70 | 0.0 | 1.0 | 0.00 | 0.00 | 0.00 | 86 | 1009.2 |
| 20260904042959 | 77 | 63 | 0.0 | 1.0 | 0.00 | 0.00 | 0.00 | 85 | 1009.3 |
| 20260904042453 | 77 | 79 | 0.0 | 0.0 | 0.00 | 0.00 | 0.00 | 85 | 1009.3 |
| 20260904041715 | 77 | 81 | 0.0 | 0.0 | 0.00 | 0.00 | 0.00 | 85 | 1009.2 |
| 20260904041440 | 78 | 79 | 0.0 | 0.0 | 0.00 | 0.00 | 0.00 | 84 | 1009.2 |
| 20260904040703 | 78 | 41 | 0.0 | 0.0 | 0.00 | 0.00 | 0.00 | 84 | 1009.2 |
| 20260904040429 | 78 | 41 | 0.0 | 1.0 | 0.00 | 0.00 | 0.00 | 83 | 1009.2 |
| 20260904035651 | 78 | 41 | 0.0 | 1.0 | 0.00 | 0.00 | 0.00 | 83 | 1009.2 |
| 20260904035144 | 78 | 49 | 0.0 | 0.0 | 0.00 | 0.00 | 0.00 | 83 | 1009.1 |
| 20260904034639 | 78 | 49 | 0.0 | 0.0 | 0.00 | 0.00 | 0.00 | 83 | 1009.0 |
| 20260904034133 | 79 | 49 | 0.0 | 0.0 | 0.00 | 0.00 | 0.00 | 82 | 1009.0 |
| 20260904033858 | 79 | 49 | 0.0 | 3.0 | 0.00 | 0.00 | 0.00 | 82 | 1009.0 |
| 20260904033121 | 79 | 32 | 0.0 | 3.0 | 0.00 | 0.00 | 0.00 | 81 | 1009.1 |
| 20260904032615 | 79 | 308 | 0.0 | 2.0 | 0.00 | 0.00 | 0.00 | 81 | 1009.0 |
| 20260904032109 | 79 | 309 | 0.0 | 2.0 | 0.00 | 0.00 | 0.00 | 81 | 1008.9 |
| 20260904031603 | 79 | 215 | 0.0 | 2.0 | 0.00 | 0.00 | 0.00 | 80 | 1008.9 |
| 20260904031059 | 80 | 205 | 0.0 | 2.0 | 0.00 | 0.00 | 0.00 | 80 | 1008.9 |
| 20260904031053 | 80 | 172 | 0.0 | 2.0 | 0.00 | 0.00 | 0.00 | 80 | 1008.8 |
| 20260904030045 | 80 | 104 | 1.0 | 3.0 | 0.00 | 0.00 | 0.00 | 80 | 1008.9 |
| 20260904025538 | 80 | 173 | 0.0 | 3.0 | 0.00 | 0.00 | 0.00 | 79 | 1008.8 |
| 20260904025033 | 80 | 235 | 0.0 | 2.0 | 0.00 | 0.00 | 0.00 | 79 | 1008.8 |
| 20260904024759 | 80 | 169 | 0.0 | 2.0 | 0.00 | 0.00 | 0.00 | 79 | 1008.9 |
| 20260904024020 | 80 | 161 | 0.0 | 2.0 | 0.00 | 0.00 | 0.00 | 78 | 1008.8 |
| 20260904023516 | 80 | 148 | 0.0 | 2.0 | 0.00 | 0.00 | 0.00 | 78 | 1008.8 |
| 20260904023009 | 80 | 113 | 0.0 | 2.0 | 0.00 | 0.00 | 0.00 | 77 | 1008.8 |
| 20260904022503 | 81 | 245 | 0.0 | 2.0 | 0.00 | 0.00 | 0.00 | 77 | 1008.7 |
| 20260904021957 | 81 | 205 | 0.0 | 3.0 | 0.00 | 0.00 | 0.00 | 77 | 1008.8 |
| 20260904021450 | 81 | 152 | 1.0 | 3.0 | 0.00 | 0.00 | 0.00 | 76 | 1008.7 |
| 20260904020948 | 81 | 108 | 1.0 | 3.0 | 0.00 | 0.00 | 0.00 | 76 | 1008.7 |
| 20260904020943 | 81 | 163 | 0.0 | 3.0 | 0.00 | 0.00 | 0.00 | 76 | 1008.7 |
| 20260904015932 | 81 | 205 | 0.0 | 1.0 | 0.00 | 0.00 | 0.00 | 75 | 1008.7 |
| 20260904015426 | 82 | 155 | 0.0 | 2.0 | 0.00 | 0.00 | 0.00 | 74 | 1008.8 |
| 20260904014921 | 82 | 188 | 0.0 | 2.0 | 0.00 | 0.00 | 0.00 | 74 | 1008.8 |
| 20260904014415 | 82 | 245 | 0.0 | 2.0 | 0.00 | 0.00 | 0.00 | 73 | 1008.8 |
| 20260904013909 | 82 | 184 | 0.0 | 2.0 | 0.00 | 0.00 | 0.00 | 73 | 1008.8 |
| 20260904013402 | 83 | 112 | 0.0 | 1.0 | 0.00 | 0.00 | 0.00 | 73 | 1008.8 |
| 20260904012857 | 83 | 87 | 0.0 | 1.0 | 0.00 | 0.00 | 0.00 | 72 | 1008.8 |
| 20260904012350 | 83 | 96 | 0.0 | 1.0 | 0.00 | 0.00 | 0.00 | 72 | 1008.7 |
| 20260904011846 | 83 | 120 | 0.0 | 1.0 | 0.00 | 0.00 | 0.00 | 73 | 1008.7 |
| 20260904011345 | 83 | 120 | 0.0 | 0.0 | 0.00 | 0.00 | 0.00 | 72 | 1008.7 |
| 20260904010845 | 83 | 120 | 0.0 | 0.0 | 0.00 | 0.00 | 0.00 | 72 | 1008.6 |
| 20260904010343 | 83 | 120 | 0.0 | 0.0 | 0.00 | 0.00 | 0.00 | 71 | 1008.6 |
| 20260904005844 | 83 | 120 | 0.0 | 0.0 | 0.00 | 0.00 | 0.00 | 71 | 1008.6 |
| 20260904005343 | 83 | 120 | 0.0 | 0.0 | 0.00 | 0.00 | 0.00 | 71 | 1008.6 |
| 20260904004844 | 83 | 120 | 0.0 | 3.0 | 0.00 | 0.00 | 0.00 | 70 | 1008.5 |
| 20260904004341 | 83 | 110 | 0.0 | 3.0 | 0.00 | 0.00 | 0.00 | 70 | 1008.5 |
| 20260904003840 | 84 | 195 | 0.0 | 1.0 | 0.00 | 0.00 | 0.00 | 70 | 1008.4 |
| 20260904003338 | 84 | 168 | 0.0 | 1.0 | 0.00 | 0.00 | 0.00 | 70 | 1008.4 |
| 20260904002839 | 84 | 205 | 0.0 | 1.0 | 0.00 | 0.00 | 0.00 | 69 | 1008.5 |
| 20260904002338 | 84 | 134 | 0.0 | 3.0 | 0.00 | 0.00 | 0.00 | 68 | 1008.5 |
| 20260904002111 | 84 | 172 | 0.0 | 3.0 | 0.00 | 0.00 | 0.00 | 68 | 1008.5 |
| 20260904001336 | 84 | 110 | 1.0 | 3.0 | 0.00 | 0.00 | 0.00 | 68 | 1008.5 |
| 20260904000834 | 84 | 169 | 1.0 | 4.0 | 0.00 | 0.00 | 0.00 | 68 | 1008.5 |
| 20260904000333 | 84 | 166 | 1.0 | 4.0 | 0.00 | 0.00 | 0.00 | 67 | 1008.4 |
| 20260903235831 | 85 | 49 | 1.0 | 2.0 | 0.00 | 0.00 | 0.00 | 67 | 1008.4 |
| 20260903235330 | 85 | 212 | 0.0 | 3.0 | 0.00 | 0.00 | 0.00 | 67 | 1008.4 |
| 20260903234830 | 85 | 259 | 1.0 | 4.0 | 0.00 | 0.00 | 0.00 | 66 | 1008.4 |
| 20260903234602 | 85 | 225 | 1.0 | 4.0 | 0.00 | 0.00 | 0.00 | 66 | 1008.4 |
| 20260903234100 | 85 | 341 | 0.0 | 4.0 | 0.00 | 0.00 | 0.00 | 66 | 1008.4 |
| 20260903233327 | 85 | 146 | 1.0 | 6.0 | 0.00 | 0.00 | 0.00 | 66 | 1008.3 |
| 20260903232825 | 85 | 169 | 1.0 | 6.0 | 0.00 | 0.00 | 0.00 | 65 | 1008.2 |
| 20260903232330 | 86 | 146 | 1.0 | 4.0 | 0.00 | 0.00 | 0.00 | 64 | 1008.1 |
| 20260903231829 | 86 | 130 | 1.0 | 5.0 | 0.00 | 0.00 | 0.00 | 63 | 1008.0 |
| 20260903231330 | 87 | 138 | 2.0 | 5.0 | 0.00 | 0.00 | 0.00 | 62 | 1008.0 |
| 20260903231059 | 87 | 113 | 1.0 | 5.0 | 0.00 | 0.00 | 0.00 | 61 | 1008.0 |
| 20260903230326 | 87 | 204 | 1.0 | 4.0 | 0.00 | 0.00 | 0.00 | 61 | 1007.9 |
| 20260903225827 | 87 | 197 | 1.0 | 4.0 | 0.00 | 0.00 | 0.00 | 61 | 1007.9 |
| 20260903225557 | 87 | 184 | 1.0 | 4.0 | 0.00 | 0.00 | 0.00 | 63 | 1007.7 |
| 20260903224827 | 86 | 318 | 1.0 | 5.0 | 0.00 | 0.00 | 0.00 | 63 | 1007.8 |
| 20260903224320 | 86 | 57 | 1.0 | 5.0 | 0.00 | 0.00 | 0.00 | 63 | 1007.9 |
| 20260903223820 | 86 | 99 | 2.0 | 7.0 | 0.00 | 0.00 | 0.00 | 62 | 1008.0 |
| 20260903223320 | 86 | 71 | 2.0 | 8.0 | 0.00 | 0.00 | 0.00 | 62 | 1008.0 |
| 20260903222820 | 86 | 205 | 1.0 | 8.0 | 0.00 | 0.00 | 0.00 | 62 | 1008.1 |
| 20260903222321 | 86 | 154 | 1.0 | 7.0 | 0.00 | 0.00 | 0.00 | 62 | 1008.1 |
| 20260903221819 | 87 | 99 | 1.0 | 6.0 | 0.00 | 0.00 | 0.00 | 61 | 1008.1 |
| 20260903221319 | 87 | 115 | 1.0 | 5.0 | 0.00 | 0.00 | 0.00 | 61 | 1008.2 |
| 20260903220820 | 87 | 195 | 1.0 | 4.0 | 0.00 | 0.00 | 0.00 | 61 | 1008.2 |
| 20260903220321 | 87 | 240 | 1.0 | 7.0 | 0.00 | 0.00 | 0.00 | 67 | 1008.3 |
| 20260903220048 | 87 | 238 | 1.0 | 7.0 | 0.00 | 0.00 | 0.00 | 67 | 1008.2 |
| 20260903215549 | 87 | 222 | 0.0 | 4.0 | 0.00 | 0.00 | 0.00 | 68 | 1008.1 |
| 20260903214817 | 86 | 36 | 1.0 | 7.0 | 0.00 | 0.00 | 0.00 | 68 | 1008.0 |
| 20260903214313 | 86 | 158 | 1.0 | 7.0 | 0.00 | 0.00 | 0.00 | 68 | 1008.0 |
| 20260903214047 | 86 | 345 | 1.0 | 7.0 | 0.00 | 0.00 | 0.00 | 69 | 1008.1 |
| 20260903213313 | 86 | 108 | 1.0 | 7.0 | 0.00 | 0.00 | 0.00 | 68 | 1008.2 |
| 20260903212814 | 85 | 129 | 1.0 | 3.0 | 0.00 | 0.00 | 0.00 | 71 | 1008.1 |
| 20260903212315 | 85 | 115 | 1.0 | 4.0 | 0.00 | 0.00 | 0.00 | 71 | 1008.2 |
| 20260903211815 | 85 | 262 | 1.0 | 5.0 | 0.00 | 0.00 | 0.00 | 70 | 1008.3 |
| 20260903211315 | 85 | 106 | 2.0 | 7.0 | 0.00 | 0.00 | 0.00 | 69 | 1008.3 |
| 20260903211044 | 85 | 207 | 2.0 | 7.0 | 0.00 | 0.00 | 0.00 | 68 | 1008.2 |
| 20260903210315 | 85 | 253 | 1.0 | 4.0 | 0.00 | 0.00 | 0.00 | 68 | 1008.3 |
| 20260903205809 | 85 | 211 | 1.0 | 5.0 | 0.00 | 0.00 | 0.00 | 69 | 1008.3 |
| 20260903205309 | 85 | 264 | 1.0 | 5.0 | 0.00 | 0.00 | 0.00 | 67 | 1008.3 |
| 20260903204811 | 85 | 239 | 1.0 | 3.0 | 0.00 | 0.00 | 0.00 | 67 | 1008.3 |
| 20260903204310 | 85 | 119 | 1.0 | 4.0 | 0.00 | 0.00 | 0.00 | 66 | 1008.5 |
| 20260903203810 | 86 | 102 | 1.0 | 7.0 | 0.00 | 0.00 | 0.00 | 64 | 1008.5 |
| 20260903203310 | 87 | 235 | 2.0 | 7.0 | 0.00 | 0.00 | 0.00 | 62 | 1008.5 |
| 20260903202811 | 87 | 44 | 2.0 | 7.0 | 0.00 | 0.00 | 0.00 | 63 | 1008.6 |
| 20260903202311 | 87 | 214 | 2.0 | 7.0 | 0.00 | 0.00 | 0.00 | 64 | 1008.6 |
| 20260903201810 | 87 | 236 | 2.0 | 6.0 | 0.00 | 0.00 | 0.00 | 62 | 1008.6 |
| 20260903201305 | 87 | 200 | 2.0 | 8.0 | 0.00 | 0.00 | 0.00 | 61 | 1008.8 |
| 20260903200805 | 87 | 257 | 2.0 | 8.0 | 0.00 | 0.00 | 0.00 | 60 | 1009.0 |
| 20260903200305 | 88 | 208 | 2.0 | 7.0 | 0.00 | 0.00 | 0.00 | 60 | 1009.0 |
| 20260903195807 | 88 | 176 | 2.0 | 7.0 | 0.00 | 0.00 | 0.00 | 61 | 1009.0 |
| 20260903195307 | 88 | 188 | 3.0 | 12.0 | 0.00 | 0.00 | 0.00 | 59 | 1009.0 |
| 20260903195039 | 89 | 224 | 2.0 | 12.0 | 0.00 | 0.00 | 0.00 | 58 | 1009.1 |
| 20260903194305 | 89 | 266 | 2.0 | 8.0 | 0.00 | 0.00 | 0.00 | 59 | 1009.1 |
| 20260903193807 | 89 | 226 | 3.0 | 10.0 | 0.00 | 0.00 | 0.00 | 58 | 1009.2 |
| 20260903193306 | 89 | 96 | 3.0 | 10.0 | 0.00 | 0.00 | 0.00 | 57 | 1009.3 |
| 20260903192803 | 89 | 162 | 3.0 | 8.0 | 0.00 | 0.00 | 0.00 | 57 | 1009.2 |
| 20260903192302 | 89 | 162 | 2.0 | 7.0 | 0.00 | 0.00 | 0.00 | 59 | 1009.2 |
| 20260903191803 | 89 | 312 | 3.0 | 10.0 | 0.00 | 0.00 | 0.00 | 59 | 1009.1 |
| 20260903191302 | 89 | 169 | 3.0 | 10.0 | 0.00 | 0.00 | 0.00 | 56 | 1009.1 |
| 20260903190803 | 90 | 119 | 2.0 | 7.0 | 0.00 | 0.00 | 0.00 | 57 | 1009.3 |
| 20260903190307 | 89 | 204 | 3.0 | 13.0 | 0.00 | 0.00 | 0.00 | 58 | 1009.2 |
| 20260903185805 | 88 | 257 | 3.0 | 13.0 | 0.00 | 0.00 | 0.00 | 58 | 1009.3 |
| 20260903185306 | 88 | 95 | 2.0 | 8.0 | 0.00 | 0.00 | 0.00 | 59 | 1009.3 |
| 20260903184806 | 88 | 336 | 3.0 | 7.0 | 0.00 | 0.00 | 0.00 | 59 | 1009.2 |
| 20260903184302 | 88 | 155 | 3.0 | 7.0 | 0.00 | 0.00 | 0.00 | 59 | 1009.5 |
| 20260903183803 | 87 | 145 | 2.0 | 7.0 | 0.00 | 0.00 | 0.00 | 60 | 1009.5 |
| 20260903183302 | 87 | 257 | 2.0 | 5.0 | 0.00 | 0.00 | 0.00 | 61 | 1009.6 |
| 20260903182801 | 86 | 156 | 1.0 | 5.0 | 0.00 | 0.00 | 0.00 | 63 | 1009.6 |
| 20260903182306 | 85 | 210 | 1.0 | 4.0 | 0.00 | 0.00 | 0.00 | 63 | 1009.6 |
| 20260903181807 | 86 | 257 | 2.0 | 6.0 | 0.00 | 0.00 | 0.00 | 58 | 1010.0 |
| 20260903181803 | 86 | 270 | 1.0 | 5.0 | 0.00 | 0.00 | 0.00 | 61 | 1009.8 |
| 20260903181053 | 87 | 159 | 2.0 | 6.0 | 0.00 | 0.00 | 0.00 | 57 | 1009.3 |
| 20260903180302 | 87 | 88 | 2.0 | 8.0 | 0.00 | 0.00 | 0.00 | 56 | 1009.6 |
| 20260903175803 | 88 | 274 | 3.0 | 11.0 | 0.00 | 0.00 | 0.00 | 55 | 1009.7 |
| 20260903175305 | 89 | 203 | 2.0 | 11.0 | 0.00 | 0.00 | 0.00 | 54 | 1009.6 |
| 20260903174802 | 90 | 156 | 2.0 | 7.0 | 0.00 | 0.00 | 0.00 | 54 | 1009.8 |
| 20260903174302 | 89 | 132 | 1.0 | 4.0 | 0.00 | 0.00 | 0.00 | 56 | 1009.8 |
| 20260903173801 | 89 | 240 | 1.0 | 4.0 | 0.00 | 0.00 | 0.00 | 57 | 1009.8 |
| 20260903173259 | 89 | 297 | 2.0 | 4.0 | 0.00 | 0.00 | 0.00 | 58 | 1009.9 |
| 20260903172800 | 89 | 325 | 2.0 | 5.0 | 0.00 | 0.00 | 0.00 | 57 | 1009.9 |
| 20260903172301 | 88 | 152 | 2.0 | 6.0 | 0.00 | 0.00 | 0.00 | 56 | 1010.0 |
| 20260903171759 | 88 | 180 | 2.0 | 6.0 | 0.00 | 0.00 | 0.00 | 56 | 1010.1 |
| 20260903171258 | 88 | 277 | 1.0 | 6.0 | 0.00 | 0.00 | 0.00 | 57 | 1010.1 |
| 20260903170752 | 88 | 105 | 1.0 | 6.0 | 0.00 | 0.00 | 0.00 | 56 | 1010.2 |
| 20260903170246 | 88 | 275 | 1.0 | 4.0 | 0.00 | 0.00 | 0.00 | 59 | 1010.2 |
| 20260903165745 | 88 | 257 | 1.0 | 4.0 | 0.00 | 0.00 | 0.00 | 60 | 1010.2 |
| 20260903165244 | 88 | 96 | 0.0 | 4.0 | 0.00 | 0.00 | 0.00 | 61 | 1010.3 |
| 20260903164746 | 87 | 105 | 1.0 | 3.0 | 0.00 | 0.00 | 0.00 | 62 | 1010.4 |
| 20260903164243 | 86 | 195 | 1.0 | 3.0 | 0.00 | 0.00 | 0.00 | 62 | 1010.4 |
| 20260903164014 | 86 | 203 | 1.0 | 3.0 | 0.00 | 0.00 | 0.00 | 65 | 1010.4 |
| 20260903163244 | 85 | 176 | 1.0 | 3.0 | 0.00 | 0.00 | 0.00 | 65 | 1010.4 |
| 20260903162743 | 84 | 189 | 0.0 | 2.0 | 0.00 | 0.00 | 0.00 | 65 | 1010.3 |
| 20260903162514 | 84 | 0 | 0.0 | 2.0 | 0.00 | 0.00 | 0.00 | 65 | 1010.4 |
| 20260903162011 | 84 | 167 | 0.0 | 3.0 | 0.00 | 0.00 | 0.00 | 65 | 1010.5 |
| 20260903161241 | 84 | 249 | 0.0 | 3.0 | 0.00 | 0.00 | 0.00 | 66 | 1010.5 |
| 20260903160738 | 83 | 93 | 0.0 | 3.0 | 0.00 | 0.00 | 0.00 | 65 | 1010.5 |
| 20260903160237 | 84 | 252 | 0.0 | 1.0 | 0.00 | 0.00 | 0.00 | 65 | 1010.5 |
| 20260903155737 | 84 | 305 | 0.0 | 2.0 | 0.00 | 0.00 | 0.00 | 66 | 1010.5 |
| 20260903155237 | 84 | 145 | 0.0 | 3.0 | 0.00 | 0.00 | 0.00 | 65 | 1010.4 |
| 20260903154738 | 83 | 204 | 1.0 | 4.0 | 0.00 | 0.00 | 0.00 | 64 | 1010.3 |
| 20260903154508 | 83 | 83 | 1.0 | 7.0 | 0.00 | 0.00 | 0.00 | 65 | 1010.3 |
| 20260903153736 | 83 | 325 | 1.0 | 7.0 | 0.00 | 0.00 | 0.00 | 67 | 1010.3 |
| 20260903153234 | 83 | 231 | 1.0 | 4.0 | 0.00 | 0.00 | 0.00 | 68 | 1010.5 |
| 20260903152734 | 83 | 115 | 0.0 | 4.0 | 0.00 | 0.00 | 0.00 | 69 | 1010.5 |
| 20260903152233 | 83 | 173 | 0.0 | 2.0 | 0.00 | 0.00 | 0.00 | 69 | 1010.4 |
| 20260903152006 | 82 | 115 | 1.0 | 7.0 | 0.00 | 0.00 | 0.00 | 70 | 1010.3 |
| 20260903151231 | 82 | 266 | 1.0 | 7.0 | 0.00 | 0.00 | 0.00 | 72 | 1010.4 |
| 20260903150731 | 81 | 232 | 0.0 | 3.0 | 0.00 | 0.00 | 0.00 | 73 | 1010.4 |
| 20260903150228 | 80 | 106 | 0.0 | 4.0 | 0.00 | 0.00 | 0.00 | 76 | 1010.3 |
| 20260903145729 | 79 | 125 | 0.0 | 4.0 | 0.00 | 0.00 | 0.00 | 78 | 1010.4 |
| 20260903145225 | 78 | 122 | 0.0 | 1.0 | 0.00 | 0.00 | 0.00 | 82 | 1010.4 |
| 20260903144726 | 77 | 87 | 0.0 | 1.0 | 0.00 | 0.00 | 0.00 | 84 | 1010.4 |
| 20260903144226 | 77 | 339 | 0.0 | 1.0 | 0.00 | 0.00 | 0.00 | 85 | 1010.4 |
| 20260903143725 | 76 | 243 | 0.0 | 1.0 | 0.00 | 0.00 | 0.00 | 86 | 1010.5 |
| 20260903143225 | 76 | 125 | 0.0 | 2.0 | 0.00 | 0.00 | 0.00 | 87 | 1010.5 |
| 20260903142724 | 75 | 217 | 0.0 | 2.0 | 0.00 | 0.00 | 0.00 | 87 | 1010.5 |
| 20260903142217 | 75 | 104 | 0.0 | 1.0 | 0.00 | 0.00 | 0.00 | 87 | 1010.5 |
| 20260903141711 | 75 | 105 | 0.0 | 0.0 | 0.00 | 0.00 | 0.00 | 88 | 1010.5 |
| 20260903141436 | 74 | 114 | 0.0 | 2.0 | 0.00 | 0.00 | 0.00 | 89 | 1010.6 |
| 20260903140931 | 74 | 114 | 0.0 | 2.0 | 0.00 | 0.00 | 0.00 | 89 | 1010.6 |
| 20260903140200 | 74 | 318 | 0.0 | 1.0 | 0.00 | 0.00 | 0.00 | 89 | 1010.7 |
| 20260903135701 | 73 | 56 | 0.0 | 1.0 | 0.00 | 0.00 | 0.00 | 89 | 1010.8 |
| 20260903135200 | 73 | 44 | 0.0 | 2.0 | 0.00 | 0.00 | 0.00 | 89 | 1010.8 |
| 20260903134701 | 73 | 97 | 0.0 | 3.0 | 0.00 | 0.00 | 0.00 | 89 | 1010.9 |
| 20260903134200 | 73 | 144 | 0.0 | 3.0 | 0.00 | 0.00 | 0.00 | 89 | 1010.8 |
| 20260903133659 | 73 | 113 | 0.0 | 1.0 | 0.00 | 0.00 | 0.00 | 90 | 1010.8 |
| 20260903133158 | 72 | 343 | 0.0 | 1.0 | 0.00 | 0.00 | 0.00 | 90 | 1010.9 |
| 20260903132928 | 72 | 100 | 0.0 | 1.0 | 0.00 | 0.00 | 0.00 | 90 | 1010.9 |
| 20260903132157 | 72 | 77 | 0.0 | 1.0 | 0.00 | 0.00 | 0.00 | 90 | 1010.8 |
| 20260903131655 | 71 | 75 | 0.0 | 2.0 | 0.00 | 0.00 | 0.00 | 90 | 1010.8 |
| 20260903131155 | 71 | 20 | 0.0 | 2.0 | 0.00 | 0.00 | 0.00 | 90 | 1010.7 |
| 20260903130655 | 71 | 43 | 0.0 | 2.0 | 0.00 | 0.00 | 0.00 | 90 | 1010.8 |
| 20260903130155 | 71 | 1 | 0.0 | 1.0 | 0.00 | 0.00 | 0.00 | 91 | 1010.7 |
| 20260903125656 | 71 | 49 | 0.0 | 3.0 | 0.00 | 0.00 | 0.00 | 91 | 1010.7 |
| 20260903125200 | 70 | 11 | 0.0 | 1.0 | 0.00 | 0.00 | 0.00 | 91 | 1010.9 |
| 20260903125155 | 70 | 80 | 0.0 | 3.0 | 0.00 | 0.00 | 0.00 | 91 | 1010.8 |
| 20260903124156 | 70 | 20 | 0.0 | 1.0 | 0.00 | 0.00 | 0.00 | 91 | 1010.8 |
| 20260903123650 | 70 | 129 | 0.0 | 1.0 | 0.00 | 0.00 | 0.00 | 91 | 1010.8 |
| 20260903123143 | 70 | 130 | 0.0 | 1.0 | 0.00 | 0.00 | 0.00 | 91 | 1010.9 |
| 20260903122638 | 70 | 145 | 0.0 | 0.0 | 0.00 | 0.00 | 0.00 | 91 | 1010.7 |
| 20260903122132 | 70 | 145 | 0.0 | 1.0 | 0.00 | 0.00 | 0.00 | 91 | 1010.8 |
| 20260903121625 | 70 | 145 | 0.0 | 1.0 | 0.00 | 0.00 | 0.00 | 91 | 1010.8 |
| 20260903121120 | 70 | 103 | 0.0 | 1.0 | 0.00 | 0.00 | 0.00 | 91 | 1010.7 |
| 20260903120613 | 70 | 115 | 0.0 | 1.0 | 0.00 | 0.00 | 0.00 | 91 | 1010.7 |
| 20260903120108 | 70 | 114 | 0.0 | 1.0 | 0.00 | 0.00 | 0.00 | 91 | 1010.7 |
| 20260903115834 | 70 | 107 | 0.0 | 1.0 | 0.00 | 0.00 | 0.00 | 91 | 1010.6 |
| 20260903115055 | 69 | 15 | 0.0 | 1.0 | 0.00 | 0.00 | 0.00 | 91 | 1010.7 |
| 20260903114549 | 69 | 9 | 0.0 | 1.0 | 0.00 | 0.00 | 0.00 | 92 | 1010.7 |
| 20260903114043 | 69 | 105 | 0.0 | 0.0 | 0.00 | 0.00 | 0.00 | 92 | 1010.7 |
| 20260903113545 | 69 | 103 | 0.0 | 0.0 | 0.00 | 0.00 | 0.00 | 92 | 1010.7 |
| 20260903113042 | 69 | 103 | 0.0 | 0.0 | 0.00 | 0.00 | 0.00 | 92 | 1010.6 |
| 20260903112541 | 69 | 97 | 0.0 | 1.0 | 0.00 | 0.00 | 0.00 | 92 | 1010.7 |
| 20260903112037 | 69 | 207 | 0.0 | 1.0 | 0.00 | 0.00 | 0.00 | 92 | 1010.7 |
| 20260903111806 | 69 | 15 | 0.0 | 1.0 | 0.00 | 0.00 | 0.00 | 92 | 1010.6 |
| 20260903111033 | 69 | 24 | 0.0 | 1.0 | 0.00 | 0.00 | 0.00 | 92 | 1010.6 |
| 20260903110533 | 69 | 25 | 0.0 | 1.0 | 0.00 | 0.00 | 0.00 | 92 | 1010.7 |
| 20260903110031 | 69 | 17 | 0.0 | 0.0 | 0.00 | 0.00 | 0.00 | 92 | 1010.8 |
| 20260903105530 | 69 | 17 | 0.0 | 0.0 | 0.00 | 0.00 | 0.00 | 92 | 1010.8 |
| 20260903105301 | 69 | 17 | 0.0 | 0.0 | 0.00 | 0.00 | 0.00 | 92 | 1010.8 |
| 20260903104524 | 69 | 17 | 0.0 | 0.0 | 0.00 | 0.00 | 0.00 | 92 | 1010.8 |
| 20260903104021 | 69 | 17 | 0.0 | 0.0 | 0.00 | 0.00 | 0.00 | 92 | 1010.7 |
| 20260903103753 | 69 | 18 | 0.0 | 1.0 | 0.00 | 0.00 | 0.00 | 92 | 1010.6 |
| 20260903103021 | 69 | 17 | 0.0 | 1.0 | 0.00 | 0.00 | 0.00 | 92 | 1010.6 |
| 20260903102519 | 69 | 18 | 0.0 | 0.0 | 0.00 | 0.00 | 0.00 | 92 | 1010.6 |
| 20260903102024 | 69 | 18 | 0.0 | 0.0 | 0.00 | 0.00 | 0.00 | 92 | 1010.4 |
| 20260903102019 | 69 | 18 | 0.0 | 0.0 | 0.00 | 0.00 | 0.00 | 92 | 1010.5 |
| 20260903101024 | 69 | 17 | 0.0 | 0.0 | 0.00 | 0.00 | 0.00 | 91 | 1010.5 |
| 20260903101019 | 69 | 17 | 0.0 | 0.0 | 0.00 | 0.00 | 0.00 | 92 | 1010.5 |
| 20260903100016 | 69 | 17 | 0.0 | 0.0 | 0.00 | 0.00 | 0.00 | 91 | 1010.5 |
| 20260903095518 | 69 | 17 | 0.0 | 0.0 | 0.00 | 0.00 | 0.00 | 91 | 1010.4 |
| 20260903095012 | 69 | 17 | 0.0 | 0.0 | 0.00 | 0.00 | 0.00 | 91 | 1010.3 |
| 20260903094506 | 69 | 37 | 0.0 | 0.0 | 0.00 | 0.00 | 0.00 | 91 | 1010.4 |
| 20260903094233 | 69 | 12 | 0.0 | 0.0 | 0.00 | 0.00 | 0.00 | 91 | 1010.5 |
| 20260903093455 | 69 | 12 | 0.0 | 0.0 | 0.00 | 0.00 | 0.00 | 91 | 1010.4 |
| 20260903092948 | 69 | 13 | 0.0 | 0.0 | 0.00 | 0.00 | 0.00 | 91 | 1010.4 |
| 20260903092713 | 69 | 13 | 0.0 | 0.0 | 0.00 | 0.00 | 0.00 | 91 | 1010.5 |
| 20260903091937 | 69 | 6 | 0.0 | 2.0 | 0.00 | 0.00 | 0.00 | 91 | 1010.3 |
| 20260903091430 | 69 | 7 | 0.0 | 2.0 | 0.00 | 0.00 | 0.00 | 91 | 1010.4 |
| 20260903090925 | 69 | 24 | 0.0 | 0.0 | 0.00 | 0.00 | 0.00 | 90 | 1010.5 |
| 20260903090418 | 69 | 26 | 0.0 | 1.0 | 0.00 | 0.00 | 0.00 | 90 | 1010.6 |
| 20260903085913 | 69 | 12 | 0.0 | 1.0 | 0.00 | 0.00 | 0.00 | 90 | 1010.3 |
| 20260903085406 | 69 | 345 | 0.0 | 0.0 | 0.00 | 0.00 | 0.00 | 90 | 1010.3 |
| 20260903084901 | 69 | 346 | 0.0 | 0.0 | 0.00 | 0.00 | 0.00 | 91 | 1010.4 |
| 20260903084355 | 69 | 345 | 0.0 | 1.0 | 0.00 | 0.00 | 0.00 | 91 | 1010.3 |
| 20260903084119 | 69 | 75 | 0.0 | 1.0 | 0.00 | 0.00 | 0.00 | 92 | 1010.4 |
| 20260903083342 | 69 | 78 | 0.0 | 0.0 | 0.00 | 0.00 | 0.00 | 92 | 1010.6 |
| 20260903082837 | 69 | 77 | 0.0 | 0.0 | 0.00 | 0.00 | 0.00 | 92 | 1010.6 |
| 20260903082331 | 69 | 77 | 0.0 | 0.0 | 0.00 | 0.00 | 0.00 | 91 | 1010.8 |
| 20260903081825 | 69 | 78 | 0.0 | 0.0 | 0.00 | 0.00 | 0.00 | 91 | 1010.9 |